Tracking 17938 objects as of 23-February-2017
HD Live streaming from Space Station
objects crossing your sky now

CRRES DEB (CANISTER)

Track CRRES DEB (CANISTER) now!


NORAD ID: 21590
Int'l Code: 1990-065F
Perigee: 339.8 km
Apogee: 31,246.2 km
Inclination: 20.2 °
Period: 547.3 minutes
Semi major axis: 22163 km
RCS: 0.1267 m2 (medium)
Launch date: July 25, 1990
Source: United States (US)
Launch site: AIR FORCE EASTERN TEST RANGE (AFETR)

Note: This is SATELLITE DEBRIS
Your satellite tracking list
Your tracking list is empty





NASA's NSSDC Master Catalog

Two Line Element Set (TLE):
1 21590U 90065F   17053.47291021  .00000265  00000-0  27522-3 0  9993
2 21590  20.2188 101.2249 6972188 344.7251   2.0769  2.63106015230458
Source of the keplerian elements: AFSPC